M I D A S
Marine Information and Data Acquisition System
Tripno 186 of the Zeeleeuw from 2001-12-17 07:15:00 to 2001-12-17 13:50:14
Back to CruiseResearch ActivitiesStationsMapUnderway DataData graphs

EquipmentUnitsComments
TimeDGPSUTC
LatitudeDGPSDM.mWGS84
LongitudeDGPSDM.mWGS84
SpeedMeteo Stationm/sRelative wind speed
DirectionMeteo StationdegRelative wind direction
TemperatureMeteo Stationdeg CelciusAir temperature
PressureMeteo StationPaAtmospheric pressure
HumidityMeteo Station%Relative humidity
Missing or incorrect values are displayed as -999
Metereological data collected by the RV Zeeleeuw from 2001-12-17 07:15:00 to 2001-12-17 13:50:14
                                                                                    Next 1000 lines
Time Latitude Longitude Speed Direction Temperature Pressure Humidity
2001-12-17 07:48:12 51°13.687 2°55.904 2.4 46 0.2 103720 87
2001-12-17 07:48:17 51°13.687 2°55.904 2.2 48 0.2 103710 87
2001-12-17 07:48:22 51°13.687 2°55.904 1.9 38 0.2 103710 87
2001-12-17 07:48:27 51°13.686 2°55.904 2 30 0.2 103710 87
2001-12-17 07:48:32 51°13.686 2°55.904 2.6 63 0.2 103710 87
2001-12-17 07:48:36 51°13.686 2°55.904 2.9 51 0.2 103710 87
2001-12-17 07:48:39 51°13.686 2°55.904 2.9 41 0.2 103710 87
2001-12-17 07:48:42 51°13.686 2°55.904 2.9 320 0.2 103710 87
2001-12-17 07:48:47 51°13.686 2°55.905 2.8 52 0.2 103710 87
2001-12-17 07:48:52 51°13.686 2°55.905 2.6 58 0.2 103710 87
2001-12-17 07:48:57 51°13.687 2°55.905 2.5 130 0.2 103710 87
2001-12-17 07:49:02 51°13.687 2°55.905 3 44 0.2 103710 87
2001-12-17 07:49:07 51°13.687 2°55.905 3.1 133 0.2 103710 87
2001-12-17 07:49:12 51°13.687 2°55.905 3.2 54 0.2 103710 87
2001-12-17 07:49:17 51°13.687 2°55.905 3.7 46 0.2 103710 87
2001-12-17 07:49:22 51°13.687 2°55.905 2.9 37 0.2 103710 87
2001-12-17 07:49:27 51°13.687 2°55.905 2.8 45 0.2 103710 87
2001-12-17 07:49:32 51°13.687 2°55.905 2.7 131 0.2 103710 87
2001-12-17 07:49:37 51°13.687 2°55.905 3.7 52 0.2 103710 87
2001-12-17 07:49:42 51°13.687 2°55.905 3.6 35 0.2 103710 87
2001-12-17 07:49:47 51°13.687 2°55.905 3 52 0.2 103710 87
2001-12-17 07:49:52 51°13.687 2°55.905 4 58 0.2 103710 87
2001-12-17 07:49:57 51°13.687 2°55.905 3.2 48 0.2 103710 87
2001-12-17 07:50:01 51°13.687 2°55.905 3.3 48 0.2 103700 87
2001-12-17 07:50:07 51°13.687 2°55.905 2.4 49 0.2 103700 87
2001-12-17 07:50:12 51°13.687 2°55.905 2.3 43 0.2 103710 87
2001-12-17 07:50:17 51°13.688 2°55.905 2.4 45 0.2 103710 87
2001-12-17 07:50:22 51°13.688 2°55.905 2.2 49 0.2 103700 87
2001-12-17 07:50:27 51°13.688 2°55.905 3.5 59 0.2 103700 87
2001-12-17 07:50:32 51°13.688 2°55.905 2.9 39 0.2 103710 87
2001-12-17 07:50:37 51°13.688 2°55.905 2.7 57 0.2 103710 87
2001-12-17 07:50:41 51°13.688 2°55.905 2.6 49 0.2 103700 87
2001-12-17 07:50:47 51°13.688 2°55.905 2.9 33 0.2 103700 87
2001-12-17 07:50:52 51°13.688 2°55.905 3.3 29 0.2 103700 87
2001-12-17 07:50:57 51°13.688 2°55.904 3.3 42 0.2 103700 87
2001-12-17 07:51:02 51°13.688 2°55.904 3.3 44 0.2 103700 87
2001-12-17 07:51:07 51°13.688 2°55.904 3.2 40 0.2 103700 87
2001-12-17 07:51:12 51°13.688 2°55.904 3.1 34 0.2 103700 87
2001-12-17 07:51:17 51°13.688 2°55.904 2.5 67 0.2 103700 87
2001-12-17 07:51:21 51°13.688 2°55.904 2.6 45 0.2 103700 87
2001-12-17 07:51:27 51°13.688 2°55.904 2.3 31 0.2 103700 87
2001-12-17 07:51:32 51°13.688 2°55.904 2.8 43 0.2 103700 87
2001-12-17 07:51:37 51°13.688 2°55.904 3 44 0.2 103700 87
2001-12-17 07:51:42 51°13.688 2°55.904 3.2 318 0.2 103700 87
2001-12-17 07:51:47 51°13.688 2°55.904 3.1 321 0.2 103700 87
2001-12-17 07:51:52 51°13.688 2°55.904 3.3 31 0.2 103700 87
2001-12-17 07:51:57 51°13.688 2°55.904 2.8 34 0.2 103700 87
2001-12-17 07:52:02 51°13.688 2°55.904 2.5 36 0.2 103700 87
2001-12-17 07:52:07 51°13.688 2°55.904 2.2 320 0.2 103700 87
2001-12-17 07:52:12 51°13.688 2°55.904 1.9 21 0.2 103700 87
2001-12-17 07:52:17 51°13.688 2°55.905 3.3 15 0.2 103700 87
2001-12-17 07:52:21 51°13.689 2°55.905 3 22 0.2 103700 87
2001-12-17 07:52:27 51°13.689 2°55.905 2.7 25 0.2 103700 87
2001-12-17 07:52:32 51°13.689 2°55.905 3.1 27 0.2 103700 87
2001-12-17 07:52:37 51°13.688 2°55.905 2.5 23 0.2 103700 87
2001-12-17 07:52:42 51°13.689 2°55.905 2.1 37 0.2 103700 87
2001-12-17 07:52:47 51°13.688 2°55.905 2.5 53 0.2 103700 87
2001-12-17 07:52:52 51°13.688 2°55.905 2.5 317 0.2 103700 87
2001-12-17 07:52:56 51°13.688 2°55.905 2.8 39 0.2 103700 87
2001-12-17 07:53:01 51°13.689 2°55.905 2.8 21 0.2 103700 87
2001-12-17 07:53:07 51°13.688 2°55.905 4.4 40 0.2 103700 87
2001-12-17 07:53:12 51°13.688 2°55.905 3.6 41 0.2 103700 87
2001-12-17 07:53:17 51°13.689 2°55.905 3.2 47 0.2 103700 87
2001-12-17 07:53:22 51°13.689 2°55.905 2.7 130 0.2 103700 87
2001-12-17 07:53:27 51°13.689 2°55.905 2.8 47 0.2 103700 87
2001-12-17 07:53:32 51°13.689 2°55.905 2.4 48 0.2 103700 87
2001-12-17 07:53:37 51°13.689 2°55.905 2.8 48 0.2 103700 87
2001-12-17 07:53:41 51°13.689 2°55.905 2.7 54 0.2 103700 87
2001-12-17 07:53:46 51°13.689 2°55.905 3.6 320 0.2 103700 87
2001-12-17 07:53:51 51°13.689 2°55.905 3.6 44 0.2 103700 87
2001-12-17 07:53:57 51°13.689 2°55.905 3.2 320 0.2 103700 87
2001-12-17 07:54:01 51°13.689 2°55.905 3.5 36 0.2 103700 87
2001-12-17 07:54:07 51°13.689 2°55.905 3.6 35 0.2 103700 87
2001-12-17 07:54:12 51°13.689 2°55.905 2.8 54 0.2 103700 87
2001-12-17 07:54:17 51°13.689 2°55.905 3.8 133 0.2 103700 87
2001-12-17 07:54:22 51°13.689 2°55.905 3.8 44 0.2 103700 87
2001-12-17 07:54:27 51°13.689 2°55.905 4.4 317 0.2 103700 87
2001-12-17 07:54:32 51°13.689 2°55.905 4.2 31 0.2 103700 87
2001-12-17 07:54:37 51°13.689 2°55.905 3.9 29 0.2 103700 87
2001-12-17 07:54:41 51°13.689 2°55.905 3.4 45 0.2 103700 87
2001-12-17 07:54:47 51°13.689 2°55.905 3 43 0.2 103700 87
2001-12-17 07:54:52 51°13.689 2°55.905 3.4 316 0.2 103700 87
2001-12-17 07:54:56 51°13.689 2°55.905 3 61 0.2 103700 87
2001-12-17 07:55:02 51°13.689 2°55.905 3.1 47 0.2 103700 87
2001-12-17 07:55:07 51°13.689 2°55.904 2.6 318 0.2 103700 87
2001-12-17 07:55:11 51°13.689 2°55.904 3 133 0.2 103700 87
2001-12-17 07:55:16 51°13.689 2°55.905 2.9 52 0.2 103700 87
2001-12-17 07:55:22 51°13.689 2°55.904 2.2 39 0.2 103700 87
2001-12-17 07:55:27 51°13.689 2°55.904 2.8 41 0.2 103700 87
2001-12-17 07:55:31 51°13.689 2°55.904 2.8 51 0.2 103700 87
2001-12-17 07:55:36 51°13.689 2°55.904 3.1 34 0.2 103700 87
2001-12-17 07:55:42 51°13.689 2°55.904 3.2 29 0.2 103700 87
2001-12-17 07:55:47 51°13.689 2°55.904 2.5 19 0.2 103700 87
2001-12-17 07:55:52 51°13.689 2°55.904 2.2 316 0.2 103700 87
2001-12-17 07:55:57 51°13.689 2°55.904 3 15 0.2 103700 87
2001-12-17 07:56:01 51°13.689 2°55.904 3.1 5 0.2 103700 87
2001-12-17 07:56:07 51°13.689 2°55.904 3 12 0.2 103700 87
2001-12-17 07:56:12 51°13.689 2°55.904 2.9 27 0.2 103700 87
2001-12-17 07:56:16 51°13.689 2°55.904 2.9 132 0.2 103700 87
2001-12-17 07:56:22 51°13.689 2°55.905 2.9 37 0.2 103700 87
2001-12-17 07:56:27 51°13.689 2°55.905 3.1 29 0.2 103700 87
2001-12-17 07:56:31 51°13.689 2°55.905 2.6 36 0.2 103700 87
2001-12-17 07:56:37 51°13.689 2°55.905 2.8 48 0.2 103700 87
2001-12-17 07:56:41 51°13.689 2°55.905 3.4 43 0.2 103700 87
2001-12-17 07:56:47 51°13.689 2°55.905 3.7 52 0.2 103700 87
2001-12-17 07:56:52 51°13.689 2°55.905 3.5 47 0.2 103700 87
2001-12-17 07:56:56 51°13.688 2°55.905 2.6 55 0.2 103700 87
2001-12-17 07:57:01 51°13.688 2°55.905 2.8 57 0.2 103700 87
2001-12-17 07:57:07 51°13.688 2°55.905 2.9 33 0.2 103700 87
2001-12-17 07:57:11 51°13.688 2°55.905 2.6 9 0.2 103700 87
2001-12-17 07:57:16 51°13.688 2°55.905 2.7 28 0.2 103700 87
2001-12-17 07:57:22 51°13.688 2°55.905 2.5 17 0.2 103700 87
2001-12-17 07:57:27 51°13.688 2°55.905 2.4 40 0.2 103700 87
2001-12-17 07:57:32 51°13.688 2°55.905 2 28 0.2 103700 87
2001-12-17 07:57:36 51°13.688 2°55.905 1.9 43 0.2 103700 87
2001-12-17 07:57:41 51°13.688 2°55.905 2.1 47 0.2 103700 87
2001-12-17 07:57:46 51°13.688 2°55.905 1.8 9 0.2 103700 87
2001-12-17 07:57:52 51°13.688 2°55.905 1.9 14 0.2 103700 87
2001-12-17 07:57:57 51°13.688 2°55.905 2 17 0.2 103700 87
2001-12-17 07:58:01 51°13.688 2°55.905 1.7 52 0.2 103700 87
2001-12-17 07:58:07 51°13.688 2°55.905 1.8 41 0.2 103700 87
2001-12-17 07:58:12 51°13.688 2°55.905 2.1 34 0.2 103700 87
2001-12-17 07:58:17 51°13.688 2°55.905 1.6 28 0.2 103700 87
2001-12-17 07:58:22 51°13.688 2°55.905 1.4 40 0.2 103700 87
2001-12-17 07:58:27 51°13.688 2°55.905 1.6 53 0.2 103700 87
2001-12-17 07:58:32 51°13.688 2°55.905 1.6 55 0.2 103700 87
2001-12-17 07:58:37 51°13.688 2°55.905 2 41 0.2 103700 87
2001-12-17 07:58:41 51°13.688 2°55.905 2 41 0.2 103700 87
2001-12-17 07:58:47 51°13.688 2°55.905 2.2 41 0.2 103700 87
2001-12-17 07:58:52 51°13.688 2°55.905 2.2 50 0.3 103700 88
2001-12-17 07:58:56 51°13.688 2°55.905 2.1 50 0.3 103700 88
2001-12-17 07:59:02 51°13.688 2°55.905 2 35 0.3 103690 88
2001-12-17 07:59:07 51°13.688 2°55.905 2 38 0.3 103690 88
2001-12-17 07:59:12 51°13.688 2°55.905 2 38 0.3 103700 88
2001-12-17 07:59:17 51°13.688 2°55.905 1.3 19 0.3 103700 88
2001-12-17 07:59:21 51°13.688 2°55.905 1.7 7 0.3 103700 87
2001-12-17 07:59:26 51°13.688 2°55.905 2.3 10 0.3 103700 87
2001-12-17 07:59:32 51°13.688 2°55.905 2.7 14 0.3 103700 87
2001-12-17 07:59:37 51°13.688 2°55.905 3.3 33 0.3 103700 87
2001-12-17 07:59:42 51°13.688 2°55.905 3 48 0.3 103700 87
2001-12-17 07:59:47 51°13.688 2°55.905 3.1 32 0.3 103700 87
2001-12-17 07:59:52 51°13.688 2°55.905 3.2 38 0.3 103700 87
2001-12-17 07:59:57 51°13.688 2°55.905 2.2 25 0.3 103700 87
2001-12-17 08:00:01 51°13.688 2°55.905 2.4 27 0.3 103700 87
2001-12-17 08:00:07 51°13.688 2°55.905 2.5 27 0.3 103700 87
2001-12-17 08:00:12 51°13.688 2°55.904 2.7 35 0.3 103700 87
2001-12-17 08:00:17 51°13.688 2°55.905 2.1 35 0.3 103700 87
2001-12-17 08:00:22 51°13.688 2°55.905 2.5 40 0.3 103700 87
2001-12-17 08:00:27 51°13.688 2°55.904 3 35 0.3 103700 87
2001-12-17 08:00:31 51°13.688 2°55.905 3 13 0.3 103700 87
2001-12-17 08:00:36 51°13.688 2°55.904 2.4 16 0.3 103700 87
2001-12-17 08:00:41 51°13.688 2°55.904 2.3 19 0.3 103700 87
2001-12-17 08:00:47 51°13.688 2°55.904 2 36 0.3 103700 87
2001-12-17 08:00:52 51°13.688 2°55.904 2.7 36 0.3 103700 87
2001-12-17 08:00:57 51°13.688 2°55.904 2.5 128 0.3 103700 87
2001-12-17 08:01:01 51°13.688 2°55.904 2.6 130 0.3 103700 87
2001-12-17 08:01:07 51°13.688 2°55.904 2.8 20 0.3 103700 87
2001-12-17 08:01:12 51°13.688 2°55.904 3.3 38 0.2 103700 87
2001-12-17 08:01:17 51°13.688 2°55.904 3.5 27 0.2 103700 87
2001-12-17 08:01:21 51°13.688 2°55.904 3.3 33 0.2 103700 87
2001-12-17 08:01:27 51°13.688 2°55.904 3.8 35 0.2 103700 87
2001-12-17 08:01:32 51°13.688 2°55.904 3.6 31 0.3 103700 87
2001-12-17 08:01:37 51°13.688 2°55.904 3.1 30 0.3 103700 87
2001-12-17 08:01:42 51°13.688 2°55.905 3.5 25 0.2 103700 87
2001-12-17 08:01:47 51°13.688 2°55.904 2.5 40 0.2 103700 87
2001-12-17 08:01:52 51°13.688 2°55.904 3.2 27 0.2 103700 87
2001-12-17 08:01:57 51°13.688 2°55.904 2.9 20 0.2 103700 87
2001-12-17 08:02:02 51°13.688 2°55.904 3.5 26 0.2 103700 87
2001-12-17 08:02:07 51°13.688 2°55.905 2.4 35 0.2 103700 87
2001-12-17 08:02:12 51°13.688 2°55.905 2.8 27 0.2 103700 87
2001-12-17 08:02:17 51°13.688 2°55.905 2.9 20 0.2 103700 87
2001-12-17 08:02:22 51°13.688 2°55.905 2.9 25 0.2 103700 87
2001-12-17 08:02:27 51°13.688 2°55.905 2.6 12 0.2 103700 87
2001-12-17 08:02:32 51°13.688 2°55.905 2.5 39 0.2 103700 87
2001-12-17 08:02:36 51°13.688 2°55.905 2.4 39 0.2 103700 87
2001-12-17 08:02:42 51°13.688 2°55.905 2.1 14 0.2 103700 87
2001-12-17 08:02:47 51°13.688 2°55.905 2.1 15 0.2 103700 87
2001-12-17 08:02:52 51°13.688 2°55.905 2.3 28 0.2 103700 87
2001-12-17 08:02:57 51°13.688 2°55.905 2 25 0.2 103700 87
2001-12-17 08:03:02 51°13.688 2°55.905 1.8 22 0.2 103700 87
2001-12-17 08:03:07 51°13.688 2°55.905 2.5 43 0.2 103700 87
2001-12-17 08:03:12 51°13.688 2°55.905 2.3 60 0.2 103700 87
2001-12-17 08:03:17 51°13.688 2°55.905 2.6 4 0.2 103700 87
2001-12-17 08:03:22 51°13.688 2°55.905 3.4 21 0.2 103700 87
2001-12-17 08:03:27 51°13.688 2°55.905 1.2 32 0.2 103700 87
2001-12-17 08:03:32 51°13.688 2°55.905 2.6 31 0.2 103700 87
2001-12-17 08:03:37 51°13.688 2°55.905 2.7 30 0.2 103700 87
2001-12-17 08:03:41 51°13.688 2°55.905 3.6 6 0.2 103700 88
2001-12-17 08:03:47 51°13.688 2°55.905 4 37 0.2 103700 88
2001-12-17 08:03:52 51°13.688 2°55.905 3.7 22 0.2 103700 88
2001-12-17 08:03:57 51°13.688 2°55.905 3.7 2 0.2 103700 88
2001-12-17 08:04:02 51°13.688 2°55.905 3.3 30 0.2 103700 88
2001-12-17 08:04:07 51°13.688 2°55.905 3.1 32 0.2 103700 88
2001-12-17 08:04:12 51°13.688 2°55.905 3.5 40 0.2 103700 88
2001-12-17 08:04:17 51°13.689 2°55.905 2.8 21 0.2 103700 88
2001-12-17 08:04:22 51°13.689 2°55.904 2.8 318 0.2 103700 88
2001-12-17 08:04:27 51°13.689 2°55.904 3.8 23 0.2 103700 88
2001-12-17 08:04:32 51°13.689 2°55.905 3.7 19 0.2 103700 88
2001-12-17 08:04:37 51°13.689 2°55.905 3.7 16 0.2 103700 88
2001-12-17 08:04:42 51°13.688 2°55.905 3.5 30 0.2 103700 88
2001-12-17 08:04:47 51°13.688 2°55.905 3.2 31 0.2 103700 88
2001-12-17 08:04:52 51°13.688 2°55.905 3 33 0.2 103700 88
2001-12-17 08:04:57 51°13.688 2°55.905 3.6 34 0.2 103700 88
2001-12-17 08:05:01 51°13.688 2°55.904 4.2 30 0.2 103700 87
2001-12-17 08:05:07 51°13.689 2°55.904 4.6 26 0.2 103700 87
2001-12-17 08:05:12 51°13.689 2°55.904 4.6 26 0.2 103700 88
2001-12-17 08:05:17 51°13.689 2°55.905 4.5 29 0.2 103700 88
2001-12-17 08:05:22 51°13.689 2°55.905 4 26 0.2 103700 87
2001-12-17 08:05:27 51°13.689 2°55.905 3.6 317 0.2 103700 87
2001-12-17 08:05:32 51°13.689 2°55.905 3.7 36 0.2 103700 87
2001-12-17 08:05:37 51°13.689 2°55.904 3.9 29 0.2 103700 87
2001-12-17 08:05:42 51°13.689 2°55.904 3.9 28 0.2 103700 87
2001-12-17 08:05:47 51°13.689 2°55.905 4.3 41 0.2 103700 87
2001-12-17 08:05:52 51°13.689 2°55.904 4 31 0.2 103690 87
2001-12-17 08:05:57 51°13.689 2°55.904 3.5 20 0.2 103690 87
2001-12-17 08:06:02 51°13.689 2°55.904 3.9 34 0.2 103690 87
2001-12-17 08:06:07 51°13.689 2°55.904 4.1 34 0.2 103690 87
2001-12-17 08:06:12 51°13.689 2°55.904 4.3 23 0.2 103700 87
2001-12-17 08:06:17 51°13.689 2°55.904 3.9 29 0.2 103700 87
2001-12-17 08:06:21 51°13.689 2°55.904 4.1 28 0.2 103700 87
2001-12-17 08:06:26 51°13.689 2°55.904 3.6 12 0.2 103700 87
2001-12-17 08:06:32 51°13.689 2°55.904 3.8 25 0.2 103700 88
2001-12-17 08:06:37 51°13.689 2°55.904 3.3 60 0.2 103700 88
2001-12-17 08:06:41 51°13.689 2°55.904 4 131 0.2 103690 88
2001-12-17 08:06:47 51°13.689 2°55.904 3.2 319 0.2 103690 88
2001-12-17 08:06:51 51°13.689 2°55.904 2.9 46 0.2 103690 88
2001-12-17 08:06:57 51°13.689 2°55.904 2.6 40 0.2 103690 88
2001-12-17 08:07:01 51°13.689 2°55.904 2.7 15 0.1 103690 88
2001-12-17 08:07:07 51°13.689 2°55.904 2.3 34 0.1 103690 88
2001-12-17 08:07:12 51°13.689 2°55.904 2.4 40 0.1 103690 88
2001-12-17 08:07:17 51°13.689 2°55.904 2.2 319 0.1 103690 88
2001-12-17 08:07:21 51°13.689 2°55.904 2.5 46 0.2 103700 88
2001-12-17 08:07:27 51°13.689 2°55.904 3 31 0.2 103700 88
2001-12-17 08:07:32 51°13.689 2°55.904 3.3 29 0.2 103700 88
2001-12-17 08:07:37 51°13.689 2°55.904 4.2 20 0.2 103700 88
2001-12-17 08:07:42 51°13.689 2°55.904 4.2 20 0.2 103700 88
2001-12-17 08:07:47 51°13.689 2°55.904 3.9 14 0.2 103700 88
2001-12-17 08:07:52 51°13.689 2°55.904 3.6 30 0.2 103700 88
2001-12-17 08:07:57 51°13.689 2°55.904 3.8 53 0.2 103700 88
2001-12-17 08:08:02 51°13.689 2°55.904 3.5 56 0.2 103700 88
2001-12-17 08:08:07 51°13.689 2°55.904 3.3 42 0.2 103700 88
2001-12-17 08:08:12 51°13.689 2°55.904 3.3 22 0.2 103700 88
2001-12-17 08:08:17 51°13.689 2°55.904 4 19 0.2 103700 88
2001-12-17 08:08:22 51°13.689 2°55.904 4.7 26 0.2 103700 88
2001-12-17 08:08:27 51°13.689 2°55.904 3.5 25 0.2 103700 88
2001-12-17 08:08:32 51°13.689 2°55.904 4.6 38 0.2 103700 88
2001-12-17 08:08:37 51°13.689 2°55.904 3.4 22 0.2 103700 88
2001-12-17 08:08:42 51°13.689 2°55.904 3.9 32 0.2 103700 88
2001-12-17 08:08:46 51°13.689 2°55.904 3 39 0.2 103700 88
2001-12-17 08:08:52 51°13.689 2°55.904 3.1 29 0.2 103700 88
2001-12-17 08:08:57 51°13.689 2°55.904 4.1 14 0.2 103700 88
2001-12-17 08:09:02 51°13.689 2°55.904 4.2 7 0.2 103700 88
2001-12-17 08:09:07 51°13.689 2°55.904 3.6 15 0.2 103700 88
2001-12-17 08:09:12 51°13.689 2°55.904 2.9 20 0.2 103700 88
2001-12-17 08:09:16 51°13.689 2°55.904 3 45 0.2 103700 88
2001-12-17 08:09:21 51°13.689 2°55.904 2.7 33 0.2 103700 88
2001-12-17 08:09:27 51°13.689 2°55.904 2.7 29 0.2 103700 88
2001-12-17 08:09:32 51°13.689 2°55.904 3.1 40 0.2 103700 88
2001-12-17 08:09:37 51°13.689 2°55.904 2.5 125 0.2 103700 88
2001-12-17 08:09:42 51°13.689 2°55.905 2.6 21 0.2 103700 88
2001-12-17 08:09:47 51°13.689 2°55.904 1.8 331 0.2 103700 88
2001-12-17 08:09:52 51°13.689 2°55.904 1.7 54 0.2 103700 88
2001-12-17 08:09:57 51°13.689 2°55.904 2.9 320 0.2 103700 88
2001-12-17 08:10:01 51°13.689 2°55.904 3.3 46 0.2 103700 88
2001-12-17 08:10:07 51°13.689 2°55.905 3.8 320 0.2 103700 88
2001-12-17 08:10:12 51°13.689 2°55.905 3.1 24 0.2 103700 88
2001-12-17 08:10:17 51°13.689 2°55.904 4 16 0.2 103700 88
2001-12-17 08:10:22 51°13.689 2°55.904 3.1 10 0.2 103700 88
2001-12-17 08:10:26 51°13.689 2°55.904 3.2 320 0.2 103700 88
2001-12-17 08:10:32 51°13.689 2°55.904 3.6 32 0.2 103700 88
2001-12-17 08:10:37 51°13.689 2°55.904 3.7 40 0.2 103700 88
2001-12-17 08:10:42 51°13.689 2°55.904 3.5 23 0.2 103700 88
2001-12-17 08:10:47 51°13.689 2°55.904 4.2 42 0.2 103700 88
2001-12-17 08:10:52 51°13.689 2°55.904 4.2 24 0.2 103700 88
2001-12-17 08:10:56 51°13.689 2°55.904 3.7 29 0.2 103700 88
2001-12-17 08:11:02 51°13.689 2°55.904 4.1 30 0.2 103700 88
2001-12-17 08:11:07 51°13.689 2°55.904 3.1 31 0.2 103700 88
2001-12-17 08:11:12 51°13.689 2°55.904 3.6 58 0.2 103700 88
2001-12-17 08:11:17 51°13.689 2°55.903 3.3 42 0.2 103700 88
2001-12-17 08:11:21 51°13.689 2°55.903 3.7 56 0.2 103700 88
2001-12-17 08:11:27 51°13.689 2°55.903 3.5 29 0.2 103700 88
2001-12-17 08:11:31 51°13.689 2°55.903 3.2 24 0.2 103700 88
2001-12-17 08:11:36 51°13.689 2°55.903 2.4 45 0.2 103700 88
2001-12-17 08:11:42 51°13.688 2°55.903 3.3 36 0.2 103700 88
2001-12-17 08:11:47 51°13.688 2°55.903 3.1 13 0.2 103700 88
2001-12-17 08:11:52 51°13.688 2°55.903 2.5 35 0.2 103710 88
2001-12-17 08:11:57 51°13.688 2°55.903 2.7 7 0.2 103710 88
2001-12-17 08:12:02 51°13.688 2°55.904 3.1 35 0.2 103700 88
2001-12-17 08:12:06 51°13.688 2°55.904 3 20 0.2 103700 88
2001-12-17 08:12:12 51°13.688 2°55.904 2.9 14 0.2 103710 88
2001-12-17 08:12:17 51°13.688 2°55.904 2.1 31 0.2 103710 88
2001-12-17 08:12:22 51°13.688 2°55.904 2.1 1 0.2 103710 88
2001-12-17 08:12:27 51°13.688 2°55.904 2.9 44 0.2 103710 88
2001-12-17 08:12:32 51°13.688 2°55.904 2.7 28 0.2 103710 88
2001-12-17 08:12:37 51°13.688 2°55.905 3.3 19 0.2 103710 88
2001-12-17 08:12:42 51°13.688 2°55.904 2.2 29 0.2 103710 88
2001-12-17 08:12:47 51°13.688 2°55.904 3.2 32 0.2 103710 88
2001-12-17 08:12:52 51°13.688 2°55.904 2.9 40 0.2 103710 88
2001-12-17 08:12:57 51°13.688 2°55.904 3.3 20 0.2 103710 88
2001-12-17 08:13:01 51°13.688 2°55.904 3.2 27 0.2 103710 88
2001-12-17 08:13:07 51°13.688 2°55.904 3.4 27 0.2 103710 88
2001-12-17 08:13:12 51°13.688 2°55.904 3.1 23 0.2 103710 88
2001-12-17 08:13:17 51°13.688 2°55.904 3 22 0.2 103710 88
2001-12-17 08:13:22 51°13.688 2°55.904 3.5 19 0.2 103710 88
2001-12-17 08:13:27 51°13.688 2°55.904 3.3 35 0.2 103710 88
2001-12-17 08:13:32 51°13.688 2°55.904 3.1 39 0.2 103710 88
2001-12-17 08:13:37 51°13.688 2°55.904 3.3 352 0.2 103710 88
2001-12-17 08:13:42 51°13.687 2°55.904 3.6 21 0.2 103710 88
2001-12-17 08:13:47 51°13.687 2°55.904 2.9 30 0.2 103710 88
2001-12-17 08:13:52 51°13.688 2°55.904 2.4 30 0.2 103710 88
2001-12-17 08:13:57 51°13.688 2°55.904 3.8 25 0.2 103710 88
2001-12-17 08:14:02 51°13.688 2°55.904 3.7 3 0.2 103710 88
2001-12-17 08:14:07 51°13.688 2°55.904 3.6 30 0.2 103710 88
2001-12-17 08:14:12 51°13.688 2°55.904 3.2 13 0.2 103710 88
2001-12-17 08:14:17 51°13.688 2°55.904 3.5 7 0.2 103710 88
2001-12-17 08:14:22 51°13.688 2°55.904 3.4 7 0.2 103710 88
2001-12-17 08:14:27 51°13.688 2°55.904 3.4 1 0.2 103710 88
2001-12-17 08:14:32 51°13.688 2°55.904 3.3 33 0.2 103710 88
2001-12-17 08:14:37 51°13.687 2°55.904 3.5 11 0.2 103710 88
2001-12-17 08:14:41 51°13.688 2°55.904 2.9 15 0.2 103710 88
2001-12-17 08:14:47 51°13.688 2°55.904 3.4 4 0.2 103710 88
2001-12-17 08:14:52 51°13.687 2°55.904 3.4 347 0.2 103710 88
2001-12-17 08:14:57 51°13.687 2°55.904 3.1 358 0.2 103710 88
2001-12-17 08:15:02 51°13.687 2°55.904 2.8 20 0.2 103710 88
2001-12-17 08:15:07 51°13.687 2°55.904 2.2 8 0.2 103710 88
2001-12-17 08:15:12 51°13.687 2°55.904 2.7 6 0.2 103710 88
2001-12-17 08:15:17 51°13.687 2°55.904 3.1 23 0.2 103710 88
2001-12-17 08:15:22 51°13.687 2°55.904 2.8 7 0.2 103710 88
2001-12-17 08:15:27 51°13.687 2°55.904 1.8 29 0.2 103710 88
2001-12-17 08:15:31 51°13.687 2°55.904 2.5 14 0.2 103710 88
2001-12-17 08:15:36 51°13.687 2°55.904 3 3 0.2 103710 88
2001-12-17 08:15:42 51°13.687 2°55.904 2.7 6 0.2 103720 88
2001-12-17 08:15:47 51°13.687 2°55.904 2.7 36 0.2 103720 88
2001-12-17 08:15:52 51°13.687 2°55.904 2.4 15 0.2 103710 88
2001-12-17 08:15:57 51°13.687 2°55.904 2.3 40 0.2 103710 88
2001-12-17 08:16:02 51°13.687 2°55.904 1.3 38 0.2 103720 88
2001-12-17 08:16:06 51°13.687 2°55.904 1.8 319 0.2 103720 88
2001-12-17 08:16:12 51°13.687 2°55.904 1.8 38 0.2 103720 88
2001-12-17 08:16:17 51°13.687 2°55.904 2.2 41 0.2 103720 88
2001-12-17 08:16:22 51°13.687 2°55.903 2.5 41 0.2 103720 88
2001-12-17 08:16:27 51°13.687 2°55.903 3.4 17 0.2 103720 88
2001-12-17 08:16:32 51°13.687 2°55.902 3.4 15 0.2 103720 88
2001-12-17 08:16:37 51°13.688 2°55.9 2.3 2 0.2 103720 88
2001-12-17 08:16:42 51°13.688 2°55.898 2.4 7 0.2 103710 88
2001-12-17 08:16:47 51°13.689 2°55.896 2 2 0.2 103710 88
2001-12-17 08:16:52 51°13.689 2°55.893 2.5 359 0.2 103720 88
2001-12-17 08:16:57 51°13.69 2°55.89 2.6 354 0.2 103720 88
2001-12-17 08:17:03 51°13.691 2°55.886 2.8 343 0.2 103720 88
2001-12-17 08:17:08 51°13.692 2°55.881 2.6 356 0.2 103720 88
2001-12-17 08:17:13 51°13.693 2°55.877 3.3 350 0.2 103720 88
2001-12-17 08:17:18 51°13.694 2°55.872 3.6 359 0.2 103720 88
2001-12-17 08:17:22 51°13.694 2°55.867 3.9 343 0.2 103720 88
2001-12-17 08:17:28 51°13.695 2°55.86 3.9 343 0.2 103720 88
2001-12-17 08:17:33 51°13.696 2°55.854 3.9 343 0.2 103720 88
2001-12-17 08:17:38 51°13.697 2°55.848 4.5 1 0.2 103720 88
2001-12-17 08:17:43 51°13.698 2°55.842 4 355 0.2 103710 88
2001-12-17 08:17:48 51°13.699 2°55.835 3.9 4 0.2 103710 88
2001-12-17 08:17:52 51°13.7 2°55.83 3.8 6 0.2 103720 88
2001-12-17 08:17:57 51°13.7 2°55.824 4.4 336 0.2 103720 88
2001-12-17 08:18:02 51°13.701 2°55.818 4.4 338 0.2 103710 88
2001-12-17 08:18:07 51°13.701 2°55.812 5 346 0.2 103710 88
2001-12-17 08:18:12 51°13.702 2°55.805 4.9 356 0.2 103720 88
2001-12-17 08:18:17 51°13.703 2°55.799 4.3 346 0.2 103720 88
2001-12-17 08:18:22 51°13.703 2°55.793 3.8 339 0.2 103720 88
2001-12-17 08:18:27 51°13.704 2°55.787 3.2 355 0.2 103720 88
2001-12-17 08:18:32 51°13.704 2°55.782 3.1 349 0.2 103720 88
2001-12-17 08:18:37 51°13.704 2°55.776 3.2 335 0.2 103720 88
2001-12-17 08:18:42 51°13.704 2°55.771 3.6 345 0.2 103720 88
2001-12-17 08:18:47 51°13.704 2°55.766 4.3 348 0.2 103720 88
2001-12-17 08:18:52 51°13.704 2°55.761 4.1 344 0.2 103710 88
2001-12-17 08:18:57 51°13.704 2°55.756 3.7 348 0.2 103710 88
2001-12-17 08:19:02 51°13.704 2°55.751 4.5 350 0.2 103720 88
2001-12-17 08:19:07 51°13.703 2°55.747 3.7 329 0.2 103720 88
2001-12-17 08:19:12 51°13.703 2°55.742 2.8 337 0.2 103710 88
2001-12-17 08:19:17 51°13.703 2°55.738 2.9 1 0.2 103710 88
2001-12-17 08:19:22 51°13.702 2°55.734 2.8 349 0.2 103720 88
2001-12-17 08:19:27 51°13.702 2°55.731 2.2 337 0.2 103720 88
2001-12-17 08:19:32 51°13.701 2°55.727 2.9 350 0.1 103720 88
2001-12-17 08:19:37 51°13.701 2°55.724 2.3 325 0.1 103720 88
2001-12-17 08:19:42 51°13.701 2°55.722 3 332 0.1 103720 88
2001-12-17 08:19:47 51°13.701 2°55.721 1.9 330 0.1 103720 88
2001-12-17 08:19:51 51°13.702 2°55.722 2.4 340 0.2 103720 88
2001-12-17 08:19:57 51°13.705 2°55.723 2.5 311 0.2 103720 88
2001-12-17 08:20:02 51°13.708 2°55.725 2.2 320 0.2 103720 88
2001-12-17 08:20:07 51°13.712 2°55.727 1.8 255 0.2 103720 88
2001-12-17 08:20:12 51°13.718 2°55.727 1.3 242 0.1 103710 88
2001-12-17 08:20:17 51°13.725 2°55.727 1.1 186 0.1 103710 88
2001-12-17 08:20:22 51°13.732 2°55.724 2.2 208 0.1 103710 88
2001-12-17 08:20:27 51°13.74 2°55.72 1.7 210 0.1 103710 88
2001-12-17 08:20:32 51°13.747 2°55.715 1.8 186 0.1 103720 88
2001-12-17 08:20:37 51°13.755 2°55.709 2.1 197 0.1 103720 88
2001-12-17 08:20:42 51°13.762 2°55.702 2 172 0.1 103710 88
2001-12-17 08:20:47 51°13.769 2°55.696 2 187 0.1 103710 88
2001-12-17 08:20:52 51°13.776 2°55.689 2.1 193 0.2 103710 88
2001-12-17 08:20:57 51°13.783 2°55.682 1.4 193 0.2 103710 88
2001-12-17 08:21:02 51°13.79 2°55.676 2.5 193 0.2 103710 88
2001-12-17 08:21:07 51°13.797 2°55.669 2.3 209 0.2 103710 88
2001-12-17 08:21:12 51°13.803 2°55.662 1.4 183 0.2 103710 88
2001-12-17 08:21:16 51°13.809 2°55.657 1.3 177 0.2 103710 88
2001-12-17 08:21:22 51°13.817 2°55.649 1.5 150 0.2 103710 88
2001-12-17 08:21:27 51°13.824 2°55.643 3.7 192 0.2 103710 88
2001-12-17 08:21:32 51°13.831 2°55.637 3.4 141 0.2 103720 88
2001-12-17 08:21:37 51°13.838 2°55.631 2.1 206 0.2 103720 88
2001-12-17 08:21:42 51°13.845 2°55.625 0.8 237 0.2 103710 88
2001-12-17 08:21:47 51°13.852 2°55.619 1.6 204 0.2 103710 88
2001-12-17 08:21:52 51°13.859 2°55.613 2.1 186 0.2 103710 88
2001-12-17 08:21:57 51°13.866 2°55.608 3.6 176 0.2 103710 88
2001-12-17 08:22:02 51°13.873 2°55.602 3 202 0.2 103720 88
2001-12-17 08:22:07 51°13.88 2°55.597 2.6 221 0.2 103720 88
2001-12-17 08:22:12 51°13.887 2°55.591 2.1 222 0.3 103720 88
2001-12-17 08:22:16 51°13.893 2°55.587 2.5 183 0.3 103720 88
2001-12-17 08:22:22 51°13.902 2°55.582 3.5 171 0.3 103710 88
2001-12-17 08:22:27 51°13.909 2°55.577 3.3 190 0.3 103710 88
2001-12-17 08:22:31 51°13.915 2°55.573 3.6 171 0.3 103720 88
2001-12-17 08:22:37 51°13.923 2°55.567 2.3 181 0.3 103720 88
2001-12-17 08:22:42 51°13.93 2°55.561 1.9 177 0.3 103710 88
2001-12-17 08:22:47 51°13.937 2°55.556 3.5 179 0.3 103710 88
2001-12-17 08:22:52 51°13.944 2°55.55 3.7 173 0.3 103710 88
2001-12-17 08:22:57 51°13.952 2°55.545 2.6 181 0.3 103710 88
2001-12-17 08:23:02 51°13.959 2°55.54 2.7 149 0.3 103710 88
2001-12-17 08:23:07 51°13.966 2°55.535 3.3 199 0.3 103710 88
2001-12-17 08:23:12 51°13.973 2°55.53 3.7 191 0.3 103710 88
2001-12-17 08:23:17 51°13.98 2°55.526 3.1 203 0.3 103710 88
2001-12-17 08:23:22 51°13.988 2°55.521 2.8 207 0.3 103710 88
2001-12-17 08:23:27 51°13.995 2°55.516 2.6 184 0.3 103710 88
2001-12-17 08:23:32 51°14.002 2°55.511 3.3 142 0.4 103710 89
2001-12-17 08:23:37 51°14.009 2°55.506 3.5 185 0.4 103710 89
2001-12-17 08:23:42 51°14.016 2°55.501 4.2 172 0.4 103710 89
2001-12-17 08:23:47 51°14.024 2°55.496 5.2 175 0.4 103710 89
2001-12-17 08:23:52 51°14.031 2°55.491 4.6 179 0.4 103710 89
2001-12-17 08:23:57 51°14.038 2°55.485 4.6 190 0.4 103710 89
2001-12-17 08:24:02 51°14.045 2°55.48 3.8 193 0.4 103710 89
2001-12-17 08:24:07 51°14.052 2°55.475 3 184 0.4 103710 89
2001-12-17 08:24:12 51°14.059 2°55.47 2.9 180 0.5 103710 89
2001-12-17 08:24:17 51°14.066 2°55.465 3.2 204 0.5 103710 89
2001-12-17 08:24:22 51°14.073 2°55.459 2.7 194 0.5 103710 89
2001-12-17 08:24:26 51°14.079 2°55.455 3.2 201 0.5 103710 89
2001-12-17 08:24:32 51°14.087 2°55.448 3.3 207 0.5 103710 89
2001-12-17 08:24:37 51°14.094 2°55.442 2 207 0.5 103710 89
2001-12-17 08:24:42 51°14.101 2°55.437 1.4 267 0.5 103710 89
2001-12-17 08:24:46 51°14.107 2°55.433 1.6 255 0.5 103710 89
2001-12-17 08:24:52 51°14.115 2°55.426 1.7 186 0.6 103710 89
2001-12-17 08:24:57 51°14.122 2°55.421 2.2 180 0.6 103710 89
2001-12-17 08:25:02 51°14.129 2°55.415 2.8 176 0.6 103710 89
2001-12-17 08:25:06 51°14.134 2°55.41 2.4 178 0.6 103710 89
2001-12-17 08:25:12 51°14.142 2°55.404 2.7 170 0.6 103710 89
2001-12-17 08:25:17 51°14.149 2°55.398 3.8 186 0.6 103710 89
2001-12-17 08:25:21 51°14.154 2°55.393 4.4 198 0.6 103710 89
2001-12-17 08:25:27 51°14.162 2°55.386 3.7 209 0.6 103710 89
2001-12-17 08:25:31 51°14.168 2°55.381 3.6 189 0.6 103710 89
2001-12-17 08:25:36 51°14.175 2°55.375 3.1 189 0.6 103710 89
2001-12-17 08:25:42 51°14.182 2°55.367 4.3 183 0.6 103710 89
2001-12-17 08:25:47 51°14.189 2°55.361 3.4 191 0.6 103710 89
2001-12-17 08:25:52 51°14.196 2°55.354 3.3 197 0.7 103710 89
2001-12-17 08:25:57 51°14.202 2°55.347 3.7 208 0.7 103710 89
2001-12-17 08:26:02 51°14.209 2°55.339 4.1 163 0.7 103710 89
2001-12-17 08:26:07 51°14.216 2°55.33 4.9 175 0.7 103710 89
2001-12-17 08:26:11 51°14.221 2°55.323 6.3 172 0.7 103710 89
2001-12-17 08:26:16 51°14.228 2°55.313 5.6 179 0.7 103710 89
2001-12-17 08:26:22 51°14.236 2°55.3 5.7 184 0.8 103710 89
2001-12-17 08:26:27 51°14.243 2°55.289 6.6 184 0.8 103710 89
2001-12-17 08:26:32 51°14.251 2°55.277 6.9 183 0.8 103710 89
2001-12-17 08:26:37 51°14.258 2°55.264 7.4 178 0.8 103710 89
2001-12-17 08:26:42 51°14.266 2°55.251 6.9 182 0.9 103700 90
2001-12-17 08:26:47 51°14.273 2°55.238 7.1 175 0.9 103700 90
2001-12-17 08:26:51 51°14.28 2°55.227 8.6 189 0.9 103700 90
2001-12-17 08:26:57 51°14.289 2°55.21 8.1 181 0.9 103700 90
2001-12-17 08:27:02 51°14.297 2°55.196 7.6 183 1 103700 90
2001-12-17 08:27:07 51°14.304 2°55.18 7.2 188 1 103700 90
2001-12-17 08:27:12 51°14.312 2°55.164 8.1 180 1 103700 90
2001-12-17 08:27:17 51°14.32 2°55.148 8.4 181 1 103700 90
2001-12-17 08:27:22 51°14.328 2°55.131 6.8 180 1 103700 90
2001-12-17 08:27:27 51°14.337 2°55.114 7.1 153 1 103700 90
2001-12-17 08:27:32 51°14.346 2°55.096 7 167 1.1 103700 90
2001-12-17 08:27:37 51°14.355 2°55.077 8.5 182 1.1 103700 90
2001-12-17 08:27:42 51°14.365 2°55.058 9 181 1.1 103700 90
2001-12-17 08:27:47 51°14.375 2°55.037 9.7 182 1.1 103700 90
2001-12-17 08:27:52 51°14.385 2°55.016 9.9 177 1.1 103700 90
2001-12-17 08:27:57 51°14.395 2°54.995 9.9 178 1.1 103700 90
2001-12-17 08:28:01 51°14.403 2°54.977 10.2 179 1.1 103700 89
2001-12-17 08:28:07 51°14.412 2°54.948 11.2 171 1.1 103700 89
2001-12-17 08:28:12 51°14.418 2°54.922 10.6 170 1.1 103690 89
2001-12-17 08:28:17 51°14.422 2°54.895 10.8 163 1.1 103690 89
2001-12-17 08:28:22 51°14.425 2°54.868 11.1 165 1.1 103690 89
2001-12-17 08:28:27 51°14.426 2°54.84 11.3 159 1.1 103690 89
2001-12-17 08:28:31 51°14.426 2°54.817 12.4 158 1.1 103680 89
2001-12-17 08:28:37 51°14.425 2°54.782 11.1 160 1.1 103680 89
2001-12-17 08:28:42 51°14.424 2°54.753 10.5 160 1.1 103680 89
2001-12-17 08:28:47 51°14.423 2°54.724 10.6 162 1.1 103680 89
2001-12-17 08:28:52 51°14.421 2°54.695 11.9 160 1.1 103690 89
2001-12-17 08:28:57 51°14.42 2°54.666 12.4 160 1.1 103690 89
2001-12-17 08:29:02 51°14.417 2°54.637 11.4 156 1.1 103690 89
2001-12-17 08:29:07 51°14.412 2°54.608 11.4 153 1.1 103690 89
2001-12-17 08:29:12 51°14.405 2°54.58 11.7 153 1.1 103680 89
2001-12-17 08:29:17 51°14.398 2°54.552 12.4 154 1.1 103680 89
2001-12-17 08:29:22 51°14.39 2°54.525 12.1 153 1.1 103690 89
2001-12-17 08:29:27 51°14.382 2°54.499 12.2 151 1.1 103690 89
2001-12-17 08:29:32 51°14.373 2°54.472 13.7 150 1.1 103680 89
2001-12-17 08:29:37 51°14.364 2°54.446 14 151 1.1 103680 89
2001-12-17 08:29:42 51°14.355 2°54.419 14.5 152 1.1 103690 89
2001-12-17 08:29:47 51°14.347 2°54.392 13.3 154 1.1 103690 89
2001-12-17 08:29:52 51°14.339 2°54.365 13.4 154 1.2 103690 89
2001-12-17 08:29:57 51°14.331 2°54.337 12.8 157 1.2 103690 89
2001-12-17 08:30:02 51°14.323 2°54.309 14 155 1.2 103680 89
2001-12-17 08:30:07 51°14.316 2°54.282 12.5 151 1.2 103680 89
2001-12-17 08:30:12 51°14.308 2°54.254 12 155 1.2 103690 89
2001-12-17 08:30:17 51°14.3 2°54.227 12.1 158 1.2 103690 89
2001-12-17 08:30:22 51°14.292 2°54.199 11.3 159 1.3 103680 89
2001-12-17 08:30:27 51°14.284 2°54.172 12.1 157 1.3 103680 89
2001-12-17 08:30:32 51°14.276 2°54.144 12.2 154 1.3 103690 89
2001-12-17 08:30:37 51°14.268 2°54.116 11.5 158 1.3 103690 89
2001-12-17 08:30:41 51°14.262 2°54.094 12.7 150 1.3 103690 89
2001-12-17 08:30:47 51°14.252 2°54.061 11.8 155 1.3 103690 89
2001-12-17 08:30:51 51°14.245 2°54.039 13 154 1.3 103690 89
2001-12-17 08:30:57 51°14.235 2°54.006 12.2 151 1.3 103690 89
2001-12-17 08:31:02 51°14.226 2°53.979 11.4 150 1.3 103690 89
2001-12-17 08:31:07 51°14.217 2°53.952 12.3 150 1.3 103690 89
2001-12-17 08:31:12 51°14.209 2°53.924 12.4 149 1.4 103690 89
2001-12-17 08:31:17 51°14.2 2°53.897 13.4 148 1.4 103690 89
2001-12-17 08:31:22 51°14.191 2°53.87 12.8 152 1.4 103690 89
2001-12-17 08:31:27 51°14.183 2°53.842 14.1 150 1.4 103690 89
2001-12-17 08:31:32 51°14.174 2°53.815 13.7 151 1.4 103690 89
2001-12-17 08:31:37 51°14.166 2°53.787 14 152 1.4 103690 89
2001-12-17 08:31:41 51°14.159 2°53.765 13.5 152 1.5 103690 90
2001-12-17 08:31:47 51°14.149 2°53.732 13.8 150 1.5 103690 90
2001-12-17 08:31:52 51°14.14 2°53.705 13.5 145 1.5 103690 90
2001-12-17 08:31:57 51°14.131 2°53.677 13.5 148 1.5 103690 90
2001-12-17 08:32:02 51°14.122 2°53.65 13.9 146 1.6 103690 90
2001-12-17 08:32:07 51°14.112 2°53.623 14 147 1.6 103690 90
2001-12-17 08:32:12 51°14.103 2°53.595 13.6 148 1.6 103690 90
2001-12-17 08:32:17 51°14.094 2°53.568 13.4 145 1.6 103690 90
2001-12-17 08:32:22 51°14.085 2°53.54 12.5 149 1.6 103690 90
2001-12-17 08:32:27 51°14.075 2°53.513 12.8 145 1.6 103690 90
2001-12-17 08:32:32 51°14.066 2°53.485 14 149 1.7 103690 90
2001-12-17 08:32:37 51°14.057 2°53.457 12.9 145 1.7 103690 90
2001-12-17 08:32:42 51°14.048 2°53.429 14.5 145 1.7 103690 90
2001-12-17 08:32:47 51°14.039 2°53.401 14.1 144 1.7 103690 90
2001-12-17 08:32:52 51°14.03 2°53.373 13.6 146 1.8 103700 90
2001-12-17 08:32:57 51°14.02 2°53.346 14.6 144 1.8 103700 90
2001-12-17 08:33:02 51°14.011 2°53.318 14.3 143 1.8 103700 90
2001-12-17 08:33:07 51°14.002 2°53.29 13.5 145 1.8 103700 90
2001-12-17 08:33:12 51°13.993 2°53.262 14.4 144 1.8 103700 90
2001-12-17 08:33:17 51°13.983 2°53.234 13.5 141 1.8 103700 90
2001-12-17 08:33:22 51°13.974 2°53.206 13.7 143 1.9 103690 90
2001-12-17 08:33:27 51°13.964 2°53.178 13.8 142 1.9 103690 90
2001-12-17 08:33:32 51°13.955 2°53.15 13.5 143 1.9 103690 90
2001-12-17 08:33:37 51°13.945 2°53.121 14.7 144 1.9 103690 90
2001-12-17 08:33:42 51°13.936 2°53.093 14.8 146 1.9 103690 90
2001-12-17 08:33:46 51°13.928 2°53.071 13.7 144 1.9 103690 90
2001-12-17 08:33:52 51°13.917 2°53.036 13.2 143 2 103700 90
2001-12-17 08:33:57 51°13.907 2°53.008 14 141 2 103700 90
2001-12-17 08:34:02 51°13.898 2°52.979 14.1 144 2 103690 90
2001-12-17 08:34:07 51°13.889 2°52.951 13.7 145 2 103690 90
2001-12-17 08:34:12 51°13.879 2°52.923 13.5 143 2.1 103690 90
2001-12-17 08:34:17 51°13.869 2°52.894 13.6 145 2.1 103690 90
2001-12-17 08:34:21 51°13.862 2°52.871 14.8 144 2.1 103700 90
2001-12-17 08:34:27 51°13.85 2°52.837 13.2 145 2.1 103700 90
2001-12-17 08:34:32 51°13.841 2°52.808 14.7 145 2.1 103700 90
2001-12-17 08:34:37 51°13.831 2°52.78 13.9 143 2.1 103700 90
2001-12-17 08:34:42 51°13.822 2°52.751 15.7 143 2.1 103690 90
2001-12-17 08:34:47 51°13.812 2°52.722 14.7 146 2.1 103690 90
2001-12-17 08:34:52 51°13.803 2°52.694 14.6 142 2.1 103690 90
2001-12-17 08:34:57 51°13.793 2°52.665 12.8 145 2.1 103690 90
2001-12-17 08:35:02 51°13.784 2°52.636 14.2 146 2.1 103690 90
2001-12-17 08:35:07 51°13.774 2°52.607 13.6 146 2.1 103690 90
2001-12-17 08:35:12 51°13.764 2°52.578 15.1 146 2.1 103690 90
2001-12-17 08:35:17 51°13.755 2°52.549 14.5 145 2.1 103690 90
2001-12-17 08:35:22 51°13.745 2°52.521 13.4 145 2.2 103700 90
2001-12-17 08:35:27 51°13.735 2°52.492 14.4 147 2.2 103700 90
2001-12-17 08:35:32 51°13.726 2°52.463 13.2 146 2.2 103690 90
2001-12-17 08:35:37 51°13.716 2°52.434 12.6 146 2.2 103690 90
2001-12-17 08:35:42 51°13.707 2°52.404 14.7 146 2.2 103700 90
2001-12-17 08:35:47 51°13.697 2°52.375 13.9 146 2.2 103700 90
2001-12-17 08:35:52 51°13.687 2°52.346 13 147 2.2 103700 89
2001-12-17 08:35:57 51°13.678 2°52.317 14.6 145 2.2 103700 89
2001-12-17 08:36:01 51°13.67 2°52.294 13.9 146 2.1 103700 89
2001-12-17 08:36:07 51°13.658 2°52.259 14.1 149 2.1 103700 89
2001-12-17 08:36:12 51°13.648 2°52.23 13 147 2.1 103700 89
2001-12-17 08:36:17 51°13.638 2°52.201 14.5 146 2.1 103700 89
2001-12-17 08:36:22 51°13.629 2°52.171 14.5 143 2.1 103700 89
2001-12-17 08:36:27 51°13.619 2°52.142 13.9 146 2.1 103700 89
2001-12-17 08:36:32 51°13.609 2°52.113 13.4 148 2.1 103690 89
2001-12-17 08:36:37 51°13.6 2°52.083 13.3 149 2.1 103690 89
2001-12-17 08:36:42 51°13.59 2°52.054 12.9 145 2.1 103700 89
2001-12-17 08:36:47 51°13.58 2°52.025 12.8 149 2.1 103700 89
2001-12-17 08:36:52 51°13.571 2°51.996 12.6 151 2.1 103700 89
2001-12-17 08:36:57 51°13.561 2°51.966 13.4 146 2.1 103700 89
2001-12-17 08:37:01 51°13.553 2°51.943 13.5 145 2.1 103700 89
2001-12-17 08:37:07 51°13.542 2°51.908 13.7 145 2.1 103700 89
2001-12-17 08:37:11 51°13.533 2°51.885 12.7 146 2.1 103700 89
2001-12-17 08:37:17 51°13.522 2°51.849 14 143 2.1 103700 89
2001-12-17 08:37:22 51°13.513 2°51.819 14.7 145 2.1 103690 89
2001-12-17 08:37:27 51°13.503 2°51.79 15 148 2.1 103690 89
2001-12-17 08:37:31 51°13.495 2°51.767 14.6 149 2.1 103700 89
2001-12-17 08:37:37 51°13.484 2°51.731 13.6 145 2.1 103700 89
2001-12-17 08:37:42 51°13.475 2°51.702 14.4 145 2.1 103690 89
2001-12-17 08:37:47 51°13.465 2°51.672 13.6 144 2.1 103690 89
2001-12-17 08:37:52 51°13.455 2°51.643 14.5 143 2.2 103690 89
2001-12-17 08:37:57 51°13.445 2°51.614 14.3 145 2.2 103690 89
2001-12-17 08:38:02 51°13.436 2°51.584 14.6 146 2.2 103700 89
2001-12-17 08:38:07 51°13.426 2°51.555 13.2 143 2.2 103700 89
2001-12-17 08:38:12 51°13.417 2°51.525 13.7 148 2.2 103690 89
2001-12-17 08:38:17 51°13.407 2°51.495 12.9 147 2.2 103690 89
2001-12-17 08:38:22 51°13.397 2°51.466 13.9 148 2.2 103700 89
2001-12-17 08:38:27 51°13.388 2°51.437 14 147 2.2 103700 89
2001-12-17 08:38:32 51°13.378 2°51.407 14.3 146 2.2 103700 89
2001-12-17 08:38:37 51°13.368 2°51.378 13.5 144 2.2 103700 89
2001-12-17 08:38:42 51°13.359 2°51.348 13.8 147 2.2 103700 89
2001-12-17 08:38:47 51°13.349 2°51.319 14.8 148 2.2 103700 89
2001-12-17 08:38:52 51°13.339 2°51.29 14.2 149 2.3 103700 89
2001-12-17 08:38:57 51°13.33 2°51.261 14.9 147 2.3 103700 89
2001-12-17 08:39:02 51°13.32 2°51.231 14.1 146 2.3 103700 89
2001-12-17 08:39:07 51°13.31 2°51.202 13.8 146 2.3 103700 89
2001-12-17 08:39:12 51°13.3 2°51.173 13.6 147 2.3 103690 89
2001-12-17 08:39:17 51°13.29 2°51.143 14.7 147 2.3 103690 89
2001-12-17 08:39:21 51°13.283 2°51.12 13.5 147 2.3 103690 89
2001-12-17 08:39:27 51°13.271 2°51.085 14.4 147 2.3 103690 89
2001-12-17 08:39:32 51°13.262 2°51.055 14.1 149 2.3 103700 89
2001-12-17 08:39:37 51°13.252 2°51.026 13.3 145 2.3 103700 89
2001-12-17 08:39:42 51°13.242 2°50.997 15.1 145 2.3 103700 89
2001-12-17 08:39:47 51°13.232 2°50.968 13.5 147 2.3 103700 89
2001-12-17 08:39:52 51°13.222 2°50.939 12.8 146 2.3 103700 89
2001-12-17 08:39:57 51°13.213 2°50.909 14 144 2.3 103700 89
2001-12-17 08:40:02 51°13.203 2°50.88 13.6 146 2.3 103690 89
2001-12-17 08:40:07 51°13.193 2°50.851 14.7 145 2.3 103690 89
2001-12-17 08:40:12 51°13.184 2°50.822 13.7 145 2.3 103690 89
2001-12-17 08:40:17 51°13.174 2°50.793 15.3 143 2.3 103690 89
2001-12-17 08:40:22 51°13.164 2°50.763 13.9 146 2.4 103690 89
2001-12-17 08:40:27 51°13.154 2°50.734 13.4 145 2.4 103690 89
2001-12-17 08:40:32 51°13.145 2°50.705 14.5 143 2.4 103690 89
2001-12-17 08:40:37 51°13.135 2°50.676 14.1 143 2.4 103690 89
2001-12-17 08:40:42 51°13.125 2°50.646 15.2 145 2.4 103690 89
2001-12-17 08:40:47 51°13.115 2°50.617 14.9 143 2.4 103690 89
2001-12-17 08:40:52 51°13.106 2°50.588 15.1 144 2.5 103700 90
2001-12-17 08:40:57 51°13.097 2°50.558 13.9 147 2.5 103700 90
2001-12-17 08:41:02 51°13.087 2°50.529 15 143 2.5 103700 90
2001-12-17 08:41:07 51°13.077 2°50.5 16.1 143 2.5 103700 90
2001-12-17 08:41:12 51°13.068 2°50.47 15.6 145 2.5 103700 90
2001-12-17 08:41:17 51°13.058 2°50.441 14.5 143 2.5 103700 90
2001-12-17 08:41:21 51°13.05 2°50.417 15.4 145 2.6 103690 90
2001-12-17 08:41:27 51°13.038 2°50.382 15.6 148 2.6 103690 90
2001-12-17 08:41:32 51°13.028 2°50.353 14 143 2.6 103700 90
2001-12-17 08:41:37 51°13.019 2°50.324 14.3 144 2.6 103700 90
2001-12-17 08:41:42 51°13.009 2°50.295 14.7 142 2.6 103690 90
2001-12-17 08:41:47 51°12.999 2°50.265 14.4 149 2.6 103690 90
2001-12-17 08:41:52 51°12.989 2°50.236 13.6 149 2.7 103690 90
2001-12-17 08:41:57 51°12.98 2°50.206 14.8 146 2.7 103690 90
2001-12-17 08:42:02 51°12.97 2°50.177 13.7 147 2.7 103700 90
2001-12-17 08:42:07 51°12.96 2°50.147 15.6 147 2.7 103700 90
2001-12-17 08:42:12 51°12.951 2°50.118 14.4 147 2.7 103690 90
2001-12-17 08:42:17 51°12.942 2°50.088 14.3 146 2.7 103690 90
2001-12-17 08:42:22 51°12.931 2°50.059 14.2 146 2.7 103690 90
2001-12-17 08:42:27 51°12.923 2°50.029 14.8 147 2.7 103690 90
2001-12-17 08:42:32 51°12.912 2°50 15.1 144 2.8 103700 90
2001-12-17 08:42:37 51°12.903 2°49.971 13.8 144 2.8 103700 90
2001-12-17 08:42:42 51°12.893 2°49.941 14.5 144 2.8 103700 90
2001-12-17 08:42:47 51°12.884 2°49.911 14.5 144 2.8 103700 90
2001-12-17 08:42:52 51°12.874 2°49.882 13.1 143 2.8 103690 90
2001-12-17 08:42:56 51°12.866 2°49.858 14.3 142 2.8 103690 90
2001-12-17 08:43:02 51°12.854 2°49.823 14.9 144 2.8 103690 90
2001-12-17 08:43:07 51°12.844 2°49.793 16.1 143 2.8 103690 90
2001-12-17 08:43:12 51°12.834 2°49.764 14.7 143 2.8 103700 90
2001-12-17 08:43:17 51°12.825 2°49.734 15.9 142 2.8 103700 90
2001-12-17 08:43:21 51°12.817 2°49.711 14.9 140 2.8 103700 90
2001-12-17 08:43:27 51°12.806 2°49.675 14.1 139 2.8 103700 90
2001-12-17 08:43:32 51°12.796 2°49.646 15.2 141 2.8 103690 90
2001-12-17 08:43:37 51°12.786 2°49.616 14.8 142 2.8 103690 90
2001-12-17 08:43:42 51°12.776 2°49.587 15.6 142 2.8 103690 90
2001-12-17 08:43:47 51°12.767 2°49.557 14.9 142 2.8 103690 90
2001-12-17 08:43:52 51°12.757 2°49.528 15.5 141 2.8 103690 90
2001-12-17 08:43:57 51°12.747 2°49.498 16.7 141 2.8 103690 90
2001-12-17 08:44:02 51°12.737 2°49.469 15.7 141 2.8 103690 90
2001-12-17 08:44:07 51°12.728 2°49.44 15.9 140 2.8 103690 90
2001-12-17 08:44:12 51°12.718 2°49.41 15.3 141 2.8 103690 90
2001-12-17 08:44:17 51°12.708 2°49.381 15.3 141 2.8 103690 90
2001-12-17 08:44:22 51°12.699 2°49.351 15.6 142 2.8 103690 90
2001-12-17 08:44:27 51°12.689 2°49.322 15 138 2.8 103690 90
2001-12-17 08:44:32 51°12.679 2°49.292 15 139 2.7 103690 90
2001-12-17 08:44:36 51°12.671 2°49.269 14.5 141 2.7 103690 90
2001-12-17 08:44:42 51°12.66 2°49.233 14.8 139 2.7 103690 90
2001-12-17 08:44:47 51°12.65 2°49.204 14.5 139 2.7 103690 90
2001-12-17 08:44:52 51°12.64 2°49.175 14.8 140 2.7 103690 90
2001-12-17 08:44:57 51°12.63 2°49.145 15.9 139 2.7 103690 90
2001-12-17 08:45:02 51°12.621 2°49.115 15.3 139 2.7 103690 90
2001-12-17 08:45:07 51°12.611 2°49.086 16.4 138 2.7 103690 90
2001-12-17 08:45:12 51°12.601 2°49.056 16.1 138 2.7 103690 89
2001-12-17 08:45:17 51°12.591 2°49.027 15 138 2.7 103690 89
2001-12-17 08:45:22 51°12.581 2°48.998 15.4 138 2.7 103690 89
2001-12-17 08:45:27 51°12.571 2°48.968 15.1 139 2.7 103690 89
2001-12-17 08:45:32 51°12.562 2°48.938 15 140 2.7 103690 89
2001-12-17 08:45:37 51°12.552 2°48.909 15.4 140 2.7 103690 89
2001-12-17 08:45:42 51°12.543 2°48.879 15 143 2.7 103690 89
2001-12-17 08:45:47 51°12.534 2°48.849 15.5 140 2.7 103690 89
2001-12-17 08:45:52 51°12.525 2°48.819 15.2 142 2.7 103690 89
2001-12-17 08:45:57 51°12.516 2°48.788 15.8 141 2.7 103690 89
2001-12-17 08:46:01 51°12.509 2°48.764 14.9 142 2.7 103700 89
2001-12-17 08:46:07 51°12.498 2°48.728 15.5 143 2.7 103700 89
2001-12-17 08:46:12 51°12.488 2°48.699 15.6 142 2.7 103680 89
2001-12-17 08:46:17 51°12.48 2°48.668 14.8 139 2.7 103680 89
2001-12-17 08:46:21 51°12.472 2°48.644 15.8 140 2.7 103690 90
2001-12-17 08:46:27 51°12.461 2°48.608 16.2 139 2.7 103690 90
2001-12-17 08:46:32 51°12.451 2°48.578 16.1 142 2.8 103690 90
2001-12-17 08:46:37 51°12.442 2°48.548 15 141 2.8 103690 90
2001-12-17 08:46:42 51°12.433 2°48.517 14.7 136 2.8 103690 90
2001-12-17 08:46:47 51°12.424 2°48.487 15.2 142 2.8 103690 90
2001-12-17 08:46:52 51°12.415 2°48.457 15 141 2.8 103690 90
2001-12-17 08:46:57 51°12.405 2°48.427 15.8 139 2.8 103690 90
2001-12-17 08:47:02 51°12.396 2°48.397 14.3 141 2.8 103690 90
2001-12-17 08:47:07 51°12.386 2°48.366 15.3 140 2.8 103690 90
2001-12-17 08:47:12 51°12.377 2°48.336 13.9 141 2.8 103690 90
2001-12-17 08:47:17 51°12.368 2°48.306 16 142 2.8 103690 90
2001-12-17 08:47:22 51°12.358 2°48.276 16.1 139 2.8 103690 90
2001-12-17 08:47:27 51°12.349 2°48.245 15.2 142 2.8 103690 90
2001-12-17 08:47:32 51°12.34 2°48.215 14.2 140 2.9 103680 90
2001-12-17 08:47:37 51°12.33 2°48.185 14.4 138 2.9 103680 90
2001-12-17 08:47:42 51°12.322 2°48.154 15.3 141 2.9 103690 90
2001-12-17 08:47:47 51°12.312 2°48.123 15 140 2.9 103690 90
2001-12-17 08:47:51 51°12.305 2°48.099 14.9 143 2.9 103690 90
2001-12-17 08:47:57 51°12.293 2°48.063 15.8 143 2.9 103690 90
2001-12-17 08:48:01 51°12.286 2°48.039 14.7 144 2.9 103690 90
2001-12-17 08:48:07 51°12.275 2°48.003 14.5 141 2.9 103690 90
2001-12-17 08:48:12 51°12.266 2°47.973 14.3 140 2.9 103690 90
2001-12-17 08:48:17 51°12.256 2°47.943 15.6 139 2.9 103690 90
2001-12-17 08:48:22 51°12.247 2°47.913 15.3 139 2.9 103690 90
2001-12-17 08:48:27 51°12.237 2°47.883 14.3 145 2.9 103690 90
2001-12-17 08:48:32 51°12.228 2°47.853 14.3 142 2.8 103690 90
2001-12-17 08:48:37 51°12.218 2°47.823 15.9 142 2.8 103690 90
2001-12-17 08:48:42 51°12.209 2°47.793 15 143 2.8 103690 90
2001-12-17 08:48:47 51°12.2 2°47.762 14.9 142 2.8 103690 90
2001-12-17 08:48:52 51°12.191 2°47.733 14.6 143 2.9 103690 90
2001-12-17 08:48:57 51°12.181 2°47.703 15.1 142 2.9 103690 90
2001-12-17 08:49:02 51°12.172 2°47.673 14.8 142 2.9 103690 90
2001-12-17 08:49:07 51°12.163 2°47.643 14.5 142 2.9 103690 90
2001-12-17 08:49:12 51°12.153 2°47.613 16.4 142 2.9 103690 90
2001-12-17 08:49:17 51°12.144 2°47.583 14.9 141 2.9 103690 90
2001-12-17 08:49:22 51°12.135 2°47.553 15.3 141 2.9 103690 90
2001-12-17 08:49:27 51°12.126 2°47.523 13.7 138 2.9 103690 90
2001-12-17 08:49:31 51°12.119 2°47.499 14.7 144 2.9 103680 90
2001-12-17 08:49:37 51°12.107 2°47.463 14.2 142 2.9 103680 90
2001-12-17 08:49:42 51°12.098 2°47.433 15.2 140 2.9 103680 90
2001-12-17 08:49:47 51°12.089 2°47.403 14.5 144 2.9 103680 90
2001-12-17 08:49:52 51°12.08 2°47.373 15.5 144 2.9 103680 90
2001-12-17 08:49:57 51°12.072 2°47.342 14.4 145 2.9 103680 90
2001-12-17 08:50:02 51°12.063 2°47.312 15.9 141 2.9 103690 90
2001-12-17 08:50:07 51°12.055 2°47.282 15.8 142 2.9 103690 90
2001-12-17 08:50:12 51°12.047 2°47.251 14.1 146 2.9 103690 90
2001-12-17 08:50:17 51°12.039 2°47.22 15.8 145 2.9 103690 90
2001-12-17 08:50:22 51°12.031 2°47.189 14.3 146 2.9 103700 90
2001-12-17 08:50:27 51°12.023 2°47.159 15.2 147 2.9 103700 90
2001-12-17 08:50:32 51°12.016 2°47.128 14 148 2.9 103690 90
2001-12-17 08:50:37 51°12.008 2°47.097 15.7 144 2.9 103690 90
2001-12-17 08:50:42 51°12 2°47.066 15.2 145 2.9 103690 90
2001-12-17 08:50:47 51°11.993 2°47.036 15.9 146 2.9 103690 90
2001-12-17 08:50:52 51°11.985 2°47.005 14.7 146 2.9 103680 90
2001-12-17 08:50:57 51°11.977 2°46.974 15.2 146 2.9 103680 90
2001-12-17 08:51:02 51°11.968 2°46.944 15.4 147 2.9 103690 90
2001-12-17 08:51:07 51°11.961 2°46.913 14.8 147 2.9 103690 90
2001-12-17 08:51:12 51°11.952 2°46.883 14.8 144 2.9 103690 90
2001-12-17 08:51:17 51°11.944 2°46.851 16.1 147 2.9 103690 90
2001-12-17 08:51:22 51°11.936 2°46.821 14.5 146 2.9 103690 90
2001-12-17 08:51:27 51°11.928 2°46.79 15.4 143 2.9 103690 90
2001-12-17 08:51:32 51°11.92 2°46.759 15.6 149 2.9 103690 90
2001-12-17 08:51:37 51°11.912 2°46.728 14.1 147 2.9 103690 90
2001-12-17 08:51:42 51°11.903 2°46.698 14.8 145 2.9 103690 90
2001-12-17 08:51:47 51°11.896 2°46.666 14 148 2.9 103690 90
2001-12-17 08:51:52 51°11.888 2°46.636 15.1 147 2.9 103690 90
2001-12-17 08:51:57 51°11.88 2°46.605 15.4 144 2.9 103690 90
2001-12-17 08:52:02 51°11.872 2°46.574 14.4 145 2.9 103690 90
2001-12-17 08:52:06 51°11.866 2°46.549 14.7 145 2.9 103690 90
2001-12-17 08:52:12 51°11.856 2°46.512 13.9 146 2.9 103690 90
2001-12-17 08:52:17 51°11.848 2°46.481 13.5 146 2.9 103690 90
2001-12-17 08:52:22 51°11.84 2°46.45 15.7 144 2.9 103690 90
2001-12-17 08:52:27 51°11.832 2°46.42 14.7 144 2.9 103690 90
2001-12-17 08:52:32 51°11.824 2°46.389 14.9 148 2.9 103690 90
2001-12-17 08:52:37 51°11.816 2°46.358 14.7 148 2.9 103690 90
2001-12-17 08:52:41 51°11.81 2°46.333 14.8 151 3 103700 90
2001-12-17 08:52:47 51°11.8 2°46.296 13.4 145 3 103700 90
2001-12-17 08:52:52 51°11.792 2°46.265 13.2 148 3 103690 90
2001-12-17 08:52:57 51°11.783 2°46.235 14 146 3 103690 90
2001-12-17 08:53:02 51°11.776 2°46.204 14.2 149 3 103690 90
2001-12-17 08:53:07 51°11.768 2°46.173 15 144 3 103690 90
2001-12-17 08:53:12 51°11.76 2°46.142 14 144 3 103690 90
2001-12-17 08:53:17 51°11.752 2°46.111 14 143 3 103690 90
2001-12-17 08:53:22 51°11.744 2°46.08 14.3 147 3 103690 90
2001-12-17 08:53:27 51°11.736 2°46.05 15.3 144 3 103690 90
2001-12-17 08:53:32 51°11.727 2°46.019 14.2 146 3 103690 90
2001-12-17 08:53:37 51°11.72 2°45.988 13.9 142 3 103690 90
2001-12-17 08:53:42 51°11.711 2°45.958 13.1 142 3.1 103690 90
2001-12-17 08:53:47 51°11.703 2°45.927 14 141 3.1 103690 90
2001-12-17 08:53:52 51°11.695 2°45.896 14.4 142 3.1 103690 90
2001-12-17 08:53:56 51°11.688 2°45.871 13.8 141 3.1 103690 90
2001-12-17 08:54:02 51°11.679 2°45.834 14.9 143 3.1 103690 91
2001-12-17 08:54:07 51°11.671 2°45.803 14.4 142 3.1 103690 91
2001-12-17 08:54:12 51°11.663 2°45.773 14 143 3.2 103690 91
2001-12-17 08:54:17 51°11.655 2°45.741 15.2 143 3.2 103690 91
2001-12-17 08:54:22 51°11.647 2°45.711 14.9 140 3.2 103680 91
2001-12-17 08:54:27 51°11.639 2°45.68 15.2 142 3.2 103680 91
2001-12-17 08:54:32 51°11.631 2°45.649 15.5 140 3.2 103680 91
2001-12-17 08:54:37 51°11.623 2°45.618 15.4 143 3.2 103680 91
2001-12-17 08:54:42 51°11.614 2°45.588 14.2 139 3.3 103690 91
2001-12-17 08:54:47 51°11.607 2°45.557 14.1 144 3.3 103690 91
2001-12-17 08:54:52 51°11.598 2°45.526 15.3 142 3.3 103680 91
2001-12-17 08:54:57 51°11.591 2°45.495 13.8 142 3.3 103680 91
2001-12-17 08:55:02 51°11.582 2°45.464 14.2 142 3.3 103690 91
2001-12-17 08:55:07 51°11.574 2°45.433 15.8 142 3.3 103690 91
2001-12-17 08:55:12 51°11.566 2°45.402 16 141 3.4 103690 91
2001-12-17 08:55:17 51°11.558 2°45.372 15.2 141 3.4 103690 91
2001-12-17 08:55:22 51°11.55 2°45.341 16 140 3.4 103690 91
2001-12-17 08:55:26 51°11.543 2°45.316 14.6 141 3.4 103690 91
2001-12-17 08:55:32 51°11.534 2°45.279 15.4 142 3.4 103680 91
2001-12-17 08:55:37 51°11.525 2°45.248 14.6 142 3.4 103680 91
2001-12-17 08:55:42 51°11.518 2°45.217 15.9 140 3.4 103690 91
2001-12-17 08:55:47 51°11.509 2°45.187 14.6 142 3.4 103690 91
2001-12-17 08:55:52 51°11.501 2°45.155 14.8 141 3.4 103680 91
2001-12-17 08:55:57 51°11.493 2°45.124 15.8 142 3.4 103680 91
2001-12-17 08:56:02 51°11.485 2°45.093 16.1 140 3.5 103680 91
2001-12-17 08:56:07 51°11.476 2°45.063 15.9 141 3.5 103680 91
2001-12-17 08:56:12 51°11.469 2°45.031 15.6 143 3.5 103680 91
2001-12-17 08:56:17 51°11.46 2°45.001 15.9 144 3.5 103680 91
2001-12-17 08:56:22 51°11.452 2°44.97 15.2 142 3.5 103680 91
2001-12-17 08:56:27 51°11.444 2°44.939 14.3 144 3.5 103680 91
2001-12-17 08:56:32 51°11.436 2°44.908 14.8 142 3.5 103690 91
2001-12-17 08:56:37 51°11.428 2°44.877 13.9 145 3.5 103690 91
2001-12-17 08:56:42 51°11.42 2°44.847 15.4 140 3.5 103690 91
2001-12-17 08:56:47 51°11.412 2°44.816 14.4 143 3.5 103690 91
2001-12-17 08:56:52 51°11.404 2°44.785 14.6 146 3.5 103690 91
2001-12-17 08:56:57 51°11.396 2°44.755 14.7 142 3.5 103690 91
2001-12-17 08:57:02 51°11.387 2°44.724 13.7 143 3.5 103680 91
2001-12-17 08:57:07 51°11.379 2°44.694 15.5 142 3.5 103680 91
2001-12-17 08:57:12 51°11.371 2°44.663 15.2 144 3.5 103690 90
2001-12-17 08:57:16 51°11.364 2°44.638 13.7 144 3.5 103690 90
2001-12-17 08:57:22 51°11.355 2°44.601 14.8 143 3.6 103680 90
2001-12-17 08:57:27 51°11.347 2°44.571 14.3 147 3.6 103680 90
2001-12-17 08:57:32 51°11.339 2°44.54 13.7 144 3.5 103680 90
2001-12-17 08:57:37 51°11.33 2°44.509 15.3 144 3.5 103680 90
2001-12-17 08:57:42 51°11.322 2°44.478 14.5 143 3.6 103680 90
2001-12-17 08:57:47 51°11.314 2°44.448 14.4 143 3.6 103680 90
2001-12-17 08:57:52 51°11.305 2°44.417 14.3 144 3.6 103680 90
2001-12-17 08:57:57 51°11.297 2°44.387 15.3 144 3.6 103680 90
2001-12-17 08:58:02 51°11.289 2°44.356 15.1 144 3.6 103690 90
2001-12-17 08:58:07 51°11.281 2°44.325 15.6 142 3.6 103690 90
2001-12-17 08:58:12 51°11.273 2°44.295 15.1 140 3.6 103680 90
2001-12-17 08:58:17 51°11.265 2°44.264 14.5 144 3.6 103680 90
2001-12-17 08:58:22 51°11.256 2°44.234 15.4 144 3.6 103680 90
2001-12-17 08:58:27 51°11.249 2°44.203 13 147 3.6 103680 90
2001-12-17 08:58:32 51°11.24 2°44.173 13.5 145 3.6 103680 90
2001-12-17 08:58:37 51°11.232 2°44.142 14.1 145 3.6 103680 90
2001-12-17 08:58:42 51°11.223 2°44.112 13.5 143 3.6 103680 90
2001-12-17 08:58:47 51°11.215 2°44.081 14.9 143 3.6 103680 90
2001-12-17 08:58:52 51°11.207 2°44.05 15.4 145 3.6 103680 90
2001-12-17 08:58:57 51°11.199 2°44.019 15.3 143 3.6 103680 90
2001-12-17 08:59:02 51°11.191 2°43.989 14.8 142 3.6 103670 90
2001-12-17 08:59:07 51°11.183 2°43.958 14.8 143 3.6 103670 90
2001-12-17 08:59:12 51°11.175 2°43.927 14.4 145 3.6 103680 90
2001-12-17 08:59:17 51°11.166 2°43.897 16.3 142 3.6 103680 90
2001-12-17 08:59:21 51°11.16 2°43.872 14.4 142 3.6 103690 90
2001-12-17 08:59:27 51°11.15 2°43.836 14.9 142 3.6 103690 90
2001-12-17 08:59:32 51°11.142 2°43.805 14.2 144 3.6 103680 90
2001-12-17 08:59:37 51°11.134 2°43.774 14.4 142 3.6 103680 90
2001-12-17 08:59:42 51°11.126 2°43.744 13.5 142 3.6 103680 90
2001-12-17 08:59:47 51°11.117 2°43.713 14.9 145 3.6 103680 90
2001-12-17 08:59:52 51°11.109 2°43.683 14.3 147 3.7 103670 90
2001-12-17 08:59:57 51°11.102 2°43.652 13.6 146 3.7 103670 90
2001-12-17 09:00:02 51°11.093 2°43.621 14.4 146 3.7 103690 90
2001-12-17 09:00:07 51°11.085 2°43.59 14.6 144 3.7 103690 90
2001-12-17 09:00:12 51°11.076 2°43.559 13.9 142 3.7 103680 90
2001-12-17 09:00:17 51°11.068 2°43.529 14.6 140 3.7 103680 90
2001-12-17 09:00:21 51°11.062 2°43.504 14.7 143 3.7 103680 90
2001-12-17 09:00:27 51°11.051 2°43.468 12.7 139 3.7 103680 90
2001-12-17 09:00:32 51°11.043 2°43.437 13.4 145 3.7 103680 90
2001-12-17 09:00:37 51°11.035 2°43.406 14.8 142 3.7 103680 90
2001-12-17 09:00:42 51°11.026 2°43.376 13.7 142 3.8 103680 90
2001-12-17 09:00:47 51°11.018 2°43.345 13.4 146 3.8 103680 90
2001-12-17 09:00:52 51°11.01 2°43.315 14.6 143 3.8 103680 91
2001-12-17 09:00:57 51°11.001 2°43.284 13.5 141 3.8 103680 91
2001-12-17 09:01:02 51°10.993 2°43.253 13.2 143 3.8 103690 91
2001-12-17 09:01:07 51°10.985 2°43.222 15.2 140 3.8 103690 91
2001-12-17 09:01:12 51°10.976 2°43.191 13.4 139 3.8 103680 91
2001-12-17 09:01:17 51°10.968 2°43.161 14.2 143 3.8 103680 91
2001-12-17 09:01:22 51°10.96 2°43.13 14.2 144 3.9 103690 91
2001-12-17 09:01:27 51°10.951 2°43.1 14.5 145 3.9 103690 91
2001-12-17 09:01:32 51°10.943 2°43.069 13.2 146 3.9 103690 91
2001-12-17 09:01:37 51°10.935 2°43.038 14.4 142 3.9 103690 91
2001-12-17 09:01:42 51°10.927 2°43.007 13.1 148 3.9 103690 91
2001-12-17 09:01:47 51°10.918 2°42.977 14.2 145 3.9 103690 91
2001-12-17 09:01:52 51°10.91 2°42.946 12.8 149 3.9 103680 91
2001-12-17 09:01:57 51°10.902 2°42.915 14.1 147 3.9 103680 91
2001-12-17 09:02:02 51°10.893 2°42.884 14.7 149 4 103680 91
2001-12-17 09:02:07 51°10.884 2°42.854 14.4 147 4 103680 91
2001-12-17 09:02:12 51°10.876 2°42.823 14.2 146 4 103680 91
2001-12-17 09:02:17 51°10.868 2°42.792 14.2 139 4 103680 91
2001-12-17 09:02:22 51°10.861 2°42.761 13.2 150 4 103680 91
2001-12-17 09:02:27 51°10.853 2°42.73 13.2 149 4 103680 91
2001-12-17 09:02:32 51°10.845 2°42.699 11.8 148 4 103680 91
2001-12-17 09:02:37 51°10.838 2°42.668 13.1 144 4 103680 91
2001-12-17 09:02:42 51°10.83 2°42.636 12.4 144 4.1 103680 91
2001-12-17 09:02:47 51°10.822 2°42.605 12.3 143 4.1 103680 91
2001-12-17 09:02:52 51°10.814 2°42.574 13 139 4.1 103690 91
2001-12-17 09:02:57 51°10.807 2°42.543 12.6 139 4.1 103690 91
2001-12-17 09:03:02 51°10.799 2°42.512 13.8 136 4.2 103680 91
2001-12-17 09:03:07 51°10.791 2°42.481 13.2 138 4.2 103680 91
2001-12-17 09:03:12 51°10.783 2°42.449 13.5 134 4.2 103680 91
2001-12-17 09:03:17 51°10.775 2°42.419 12 133 4.2 103680 91
2001-12-17 09:03:22 51°10.768 2°42.387 13.4 143 4.3 103680 91
2001-12-17 09:03:27 51°10.76 2°42.356 12.7 146 4.3 103680 91
2001-12-17 09:03:32 51°10.752 2°42.325 12.9 145 4.4 103690 91
2001-12-17 09:03:37 51°10.744 2°42.294 13.7 145 4.4 103690 91
2001-12-17 09:03:40 51°10.74 2°42.276 13.6 144 4.4 103690 91
2001-12-17 09:03:47 51°10.729 2°42.233 13.2 144 4.4 103690 91
2001-12-17 09:03:52 51°10.721 2°42.202 12.5 145 4.4 103680 91
2001-12-17 09:03:57 51°10.713 2°42.171 11.5 143 4.4 103680 91
2001-12-17 09:04:02 51°10.705 2°42.14 13 139 4.4 103690 91
2001-12-17 09:04:07 51°10.698 2°42.109 13.6 141 4.4 103690 91
2001-12-17 09:04:12 51°10.69 2°42.078 13.5 137 4.4 103680 90
2001-12-17 09:04:17 51°10.682 2°42.047 13.4 144 4.4 103680 90
2001-12-17 09:04:22 51°10.674 2°42.017 13.6 143 4.4 103690 90
2001-12-17 09:04:27 51°10.666 2°41.986 15.1 144 4.4 103690 90
2001-12-17 09:04:32 51°10.659 2°41.955 13.8 142 4.4 103690 90
2001-12-17 09:04:37 51°10.651 2°41.924 14.5 144 4.4 103690 90
2001-12-17 09:04:42 51°10.643 2°41.893 14.1 145 4.4 103690 90
2001-12-17 09:04:47 51°10.635 2°41.862 15.4 144 4.4 103690 90
2001-12-17 09:04:52 51°10.628 2°41.831 14.5 146 4.4 103680 90
2001-12-17 09:04:57 51°10.619 2°41.801 13.7 143 4.4 103680 90
2001-12-17 09:05:02 51°10.612 2°41.77 15.2 144 4.4 103680 90
2001-12-17 09:05:07 51°10.604 2°41.739 15.1 141 4.4 103680 90
2001-12-17 09:05:12 51°10.596 2°41.708 14 141 4.4 103680 89
2001-12-17 09:05:17 51°10.588 2°41.678 15.6 143 4.4 103680 89
2001-12-17 09:05:22 51°10.58 2°41.647 15.4 144 4.4 103680 89
2001-12-17 09:05:27 51°10.573 2°41.616 15.6 145 4.4 103680 89
2001-12-17 09:05:32 51°10.565 2°41.585 15.8 145 4.4 103670 89
2001-12-17 09:05:37 51°10.557 2°41.554 14.1 146 4.4 103670 89
2001-12-17 09:05:42 51°10.549 2°41.523 15 146 4.4 103680 89
2001-12-17 09:05:47 51°10.541 2°41.493 13.3 144 4.4 103680 89
2001-12-17 09:05:52 51°10.533 2°41.462 13.2 141 4.3 103680 89
2001-12-17 09:05:57 51°10.525 2°41.431 14.5 145 4.3 103680 89
2001-12-17 09:06:01 51°10.519 2°41.406 14.8 143 4.3 103680 89
2001-12-17 09:06:07 51°10.509 2°41.369 13.3 144 4.3 103680 89
2001-12-17 09:06:12 51°10.501 2°41.339 13.3 145 4.3 103680 89
2001-12-17 09:06:17 51°10.493 2°41.308 14.6 141 4.3 103680 89
2001-12-17 09:06:22 51°10.485 2°41.277 13.9 142 4.3 103690 89
2001-12-17 09:06:27 51°10.478 2°41.246 14.5 144 4.3 103690 89
2001-12-17 09:06:32 51°10.47 2°41.215 13.9 136 4.3 103690 89
2001-12-17 09:06:37 51°10.462 2°41.184 13.5 142 4.3 103690 89
2001-12-17 09:06:42 51°10.454 2°41.153 12.1 140 4.3 103690 89
2001-12-17 09:06:47 51°10.446 2°41.123 14.4 134 4.3 103690 89
2001-12-17 09:06:52 51°10.438 2°41.092 13.7 141 4.3 103690 89
2001-12-17 09:06:57 51°10.431 2°41.061 14.5 140 4.3 103690 89
2001-12-17 09:07:02 51°10.422 2°41.031 12.8 139 4.3 103690 89
2001-12-17 09:07:07 51°10.415 2°41 12.9 139 4.3 103690 89
2001-12-17 09:07:12 51°10.406 2°40.969 13.4 135 4.4 103690 89
2001-12-17 09:07:16 51°10.4 2°40.945 13.5 140 4.4 103690 89
2001-12-17 09:07:21 51°10.392 2°40.914 14.6 142 4.4 103680 89
2001-12-17 09:07:27 51°10.383 2°40.877 15.6 142 4.4 103680 89
2001-12-17 09:07:32 51°10.375 2°40.847 14.8 141 4.4 103690 89
2001-12-17 09:07:37 51°10.367 2°40.816 14.8 144 4.4 103690 89
2001-12-17 09:07:42 51°10.359 2°40.786 14 140 4.4 103690 89
2001-12-17 09:07:47 51°10.351 2°40.755 14 146 4.4 103690 89
2001-12-17 09:07:52 51°10.343 2°40.725 13.6 146 4.4 103680 89
2001-12-17 09:07:57 51°10.335 2°40.694 13.5 146 4.4 103680 89
2001-12-17 09:08:02 51°10.328 2°40.664 15 141 4.4 103680 88
2001-12-17 09:08:07 51°10.319 2°40.633 15.3 144 4.4 103680 88
2001-12-17 09:08:12 51°10.312 2°40.602 14.8 142 4.4 103690 88
2001-12-17 09:08:17 51°10.304 2°40.572 15.5 144 4.4 103690 88
2001-12-17 09:08:22 51°10.297 2°40.541 15.8 141 4.4 103680 88
2001-12-17 09:08:27 51°10.289 2°40.511 14.1 142 4.4 103680 88
2001-12-17 09:08:32 51°10.281 2°40.48 15.5 142 4.4 103680 88
2001-12-17 09:08:37 51°10.272 2°40.45 14.4 141 4.4 103680 88
2001-12-17 09:08:42 51°10.265 2°40.42 14 139 4.3 103680 88
2001-12-17 09:08:47 51°10.257 2°40.389 14.1 141 4.3 103680 88
2001-12-17 09:08:52 51°10.249 2°40.359 16.5 144 4.3 103680 87
2001-12-17 09:08:57 51°10.241 2°40.328 16.1 143 4.3 103680 87
2001-12-17 09:09:02 51°10.234 2°40.298 15.4 143 4.3 103680 87
2001-12-17 09:09:07 51°10.226 2°40.267 16.2 143 4.3 103680 87
2001-12-17 09:09:12 51°10.218 2°40.237 16 144 4.3 103680 87
2001-12-17 09:09:17 51°10.21 2°40.206 17 142 4.3 103680 87
2001-12-17 09:09:22 51°10.202 2°40.176 17 144 4.3 103680 87
2001-12-17 09:09:27 51°10.194 2°40.146 15 143 4.3 103680 87
2001-12-17 09:09:32 51°10.186 2°40.115 16.6 146 4.2 103690 87
2001-12-17 09:09:37 51°10.179 2°40.085 15.7 145 4.2 103690 87
2001-12-17 09:09:42 51°10.171 2°40.054 14.1 143 4.2 103680 87
2001-12-17 09:09:47 51°10.163 2°40.025 14.3 141 4.2 103680 87
2001-12-17 09:09:52 51°10.155 2°39.994 15.1 141 4.2 103680 87
2001-12-17 09:09:57 51°10.147 2°39.964 15 142 4.2 103680 87
2001-12-17 09:10:02 51°10.139 2°39.933 15 141 4.2 103690 87
2001-12-17 09:10:07 51°10.131 2°39.903 13.9 142 4.2 103690 87
2001-12-17 09:10:12 51°10.123 2°39.873 13.4 140 4.2 103680 87
2001-12-17 09:10:17 51°10.115 2°39.843 13.7 143 4.2 103680 87
2001-12-17 09:10:21 51°10.109 2°39.818 13.8 143 4.2 103690 87
2001-12-17 09:10:27 51°10.099 2°39.782 13.7 140 4.2 103690 87
2001-12-17 09:10:32 51°10.092 2°39.752 15.1 140 4.1 103680 87
2001-12-17 09:10:37 51°10.084 2°39.722 15.8 141 4.1 103680 87
2001-12-17 09:10:41 51°10.078 2°39.697 15.3 138 4.2 103690 88
2001-12-17 09:10:47 51°10.068 2°39.661 13.6 141 4.2 103690 88
2001-12-17 09:10:52 51°10.06 2°39.631 14.6 144 4.1 103690 88
2001-12-17 09:10:57 51°10.053 2°39.6 14.4 144 4.1 103690 88
2001-12-17 09:11:02 51°10.044 2°39.57 15.7 142 4.2 103690 88
2001-12-17 09:11:07 51°10.037 2°39.54 14.9 138 4.2 103690 88
2001-12-17 09:11:12 51°10.029 2°39.51 16.4 142 4.2 103680 88
2001-12-17 09:11:17 51°10.021 2°39.479 15.3 143 4.2 103680 88